Year,Month,Day,Hour,Minute,Value (Times are PST for temperature in C)
2010,03,07,00,00,2.90
2010,03,07,00,01,2.90
2010,03,07,00,02,2.90
2010,03,07,00,03,2.90
2010,03,07,00,04,2.90
2010,03,07,00,05,3.00
2010,03,07,00,06,3.00
2010,03,07,00,07,3.00
2010,03,07,00,08,3.00
2010,03,07,00,09,3.00
2010,03,07,00,10,2.90
2010,03,07,00,11,2.90
2010,03,07,00,12,2.90
2010,03,07,00,13,2.90
2010,03,07,00,14,2.90
2010,03,07,00,15,2.90
2010,03,07,00,16,2.90
2010,03,07,00,17,2.90
2010,03,07,00,18,2.90
2010,03,07,00,19,2.90
2010,03,07,00,20,2.90
2010,03,07,00,21,2.90
2010,03,07,00,22,2.90
2010,03,07,00,23,2.80
2010,03,07,00,24,2.80
2010,03,07,00,25,2.80
2010,03,07,00,26,2.90
2010,03,07,00,27,2.90
2010,03,07,00,28,2.90
2010,03,07,00,29,2.90
2010,03,07,00,30,2.80
2010,03,07,00,31,2.80
2010,03,07,00,32,2.80
2010,03,07,00,33,2.80
2010,03,07,00,34,2.80
2010,03,07,00,35,2.80
2010,03,07,00,36,2.80
2010,03,07,00,37,2.80
2010,03,07,00,38,2.80
2010,03,07,00,39,2.80
2010,03,07,00,40,2.80
2010,03,07,00,41,2.80
2010,03,07,00,42,2.80
2010,03,07,00,43,2.80
2010,03,07,00,44,2.90
2010,03,07,00,45,2.90
2010,03,07,00,46,2.90
2010,03,07,00,47,2.90
2010,03,07,00,48,2.90
2010,03,07,00,49,2.80
2010,03,07,00,50,2.80
2010,03,07,00,51,2.80
2010,03,07,00,52,2.80
2010,03,07,00,53,2.80
2010,03,07,00,54,2.80
2010,03,07,00,55,2.80
2010,03,07,00,56,2.80
2010,03,07,00,57,2.80
2010,03,07,00,58,2.80
2010,03,07,00,59,2.70
2010,03,07,01,00,2.70
2010,03,07,01,01,2.70
2010,03,07,01,02,2.70
2010,03,07,01,03,2.70
2010,03,07,01,04,2.70
2010,03,07,01,05,2.70
2010,03,07,01,06,2.70
2010,03,07,01,07,2.70
2010,03,07,01,08,2.70
2010,03,07,01,09,2.70
2010,03,07,01,10,2.70
2010,03,07,01,11,2.70
2010,03,07,01,12,2.60
2010,03,07,01,13,2.60
2010,03,07,01,14,2.60
2010,03,07,01,15,2.60
2010,03,07,01,16,2.60
2010,03,07,01,17,2.60
2010,03,07,01,18,2.60
2010,03,07,01,19,2.60
2010,03,07,01,20,2.60
2010,03,07,01,21,2.60
2010,03,07,01,22,2.60
2010,03,07,01,23,2.60
2010,03,07,01,24,2.60
2010,03,07,01,25,2.60
2010,03,07,01,26,2.60
2010,03,07,01,27,2.60
2010,03,07,01,28,2.60
2010,03,07,01,29,2.60
2010,03,07,01,30,2.60
2010,03,07,01,31,2.60
2010,03,07,01,32,2.60
2010,03,07,01,33,2.60
2010,03,07,01,34,2.50
2010,03,07,01,35,2.50
2010,03,07,01,36,2.50
2010,03,07,01,37,2.50
2010,03,07,01,38,2.50
2010,03,07,01,39,2.50
2010,03,07,01,40,2.50
2010,03,07,01,41,2.50
2010,03,07,01,42,2.50
2010,03,07,01,43,2.50
2010,03,07,01,44,2.50
2010,03,07,01,45,2.50
2010,03,07,01,46,2.50
2010,03,07,01,47,2.50
2010,03,07,01,48,2.50
2010,03,07,01,49,2.50
2010,03,07,01,50,2.50
2010,03,07,01,51,2.50
2010,03,07,01,52,2.50
2010,03,07,01,53,2.50
2010,03,07,01,54,2.50
2010,03,07,01,55,2.50
2010,03,07,01,56,2.50
2010,03,07,01,57,2.50
2010,03,07,01,58,2.50
2010,03,07,01,59,2.50
2010,03,07,02,00,2.50
2010,03,07,02,01,2.50
2010,03,07,02,02,2.50
2010,03,07,02,03,2.50
2010,03,07,02,04,2.50
2010,03,07,02,05,2.50
2010,03,07,02,06,2.50
2010,03,07,02,07,2.40
2010,03,07,02,08,2.40
2010,03,07,02,09,2.40
2010,03,07,02,10,2.40
2010,03,07,02,11,2.40
2010,03,07,02,12,2.40
2010,03,07,02,13,2.40
2010,03,07,02,14,2.40
2010,03,07,02,15,2.40
2010,03,07,02,16,2.40
2010,03,07,02,17,2.40
2010,03,07,02,18,2.40
2010,03,07,02,19,2.40
2010,03,07,02,20,2.40
2010,03,07,02,21,2.30
2010,03,07,02,22,2.30
2010,03,07,02,23,2.30
2010,03,07,02,24,2.30
2010,03,07,02,25,2.30
2010,03,07,02,26,2.30
2010,03,07,02,27,2.30
2010,03,07,02,28,2.30
2010,03,07,02,29,2.30
2010,03,07,02,30,2.30
2010,03,07,02,31,2.30
2010,03,07,02,32,2.30
2010,03,07,02,33,2.30
2010,03,07,02,34,2.30
2010,03,07,02,35,2.30
2010,03,07,02,36,2.30
2010,03,07,02,37,2.30
2010,03,07,02,38,2.30
2010,03,07,02,39,2.30
2010,03,07,02,40,2.30
2010,03,07,02,41,2.30
2010,03,07,02,42,2.30
2010,03,07,02,43,2.30
2010,03,07,02,44,2.30
2010,03,07,02,45,2.30
2010,03,07,02,46,2.30
2010,03,07,02,47,2.30
2010,03,07,02,48,2.30
2010,03,07,02,49,2.30
2010,03,07,02,50,2.30
2010,03,07,02,51,2.30
2010,03,07,02,52,2.30
2010,03,07,02,53,2.30
2010,03,07,02,54,2.30
2010,03,07,02,55,2.30
2010,03,07,02,56,2.30
2010,03,07,02,57,2.30
2010,03,07,02,58,2.30
2010,03,07,02,59,2.30
2010,03,07,03,00,2.30
2010,03,07,03,01,2.30
2010,03,07,03,02,2.30
2010,03,07,03,03,2.20
2010,03,07,03,04,2.20
2010,03,07,03,05,2.20
2010,03,07,03,06,2.20
2010,03,07,03,07,2.20
2010,03,07,03,08,2.20
2010,03,07,03,09,2.20
2010,03,07,03,10,2.20
2010,03,07,03,11,2.20
2010,03,07,03,12,2.20
2010,03,07,03,13,2.20
2010,03,07,03,14,2.10
2010,03,07,03,15,2.10
2010,03,07,03,16,2.10
2010,03,07,03,17,2.10
2010,03,07,03,18,2.10
2010,03,07,03,19,2.10
2010,03,07,03,20,2.10
2010,03,07,03,21,2.10
2010,03,07,03,22,2.10
2010,03,07,03,23,2.10
2010,03,07,03,24,2.10
2010,03,07,03,25,2.10
2010,03,07,03,26,2.20
2010,03,07,03,27,2.20
2010,03,07,03,28,2.20
2010,03,07,03,29,2.20
2010,03,07,03,30,2.20
2010,03,07,03,31,2.20
2010,03,07,03,32,2.20
2010,03,07,03,33,2.20
2010,03,07,03,34,2.20
2010,03,07,03,35,2.20
2010,03,07,03,36,2.20
2010,03,07,03,37,2.20
2010,03,07,03,38,2.20
2010,03,07,03,39,2.20
2010,03,07,03,40,2.20
2010,03,07,03,41,2.20
2010,03,07,03,42,2.20
2010,03,07,03,43,2.20
2010,03,07,03,44,2.30
2010,03,07,03,45,2.30
2010,03,07,03,46,2.30
2010,03,07,03,47,2.30
2010,03,07,03,48,2.30
2010,03,07,03,49,2.30
2010,03,07,03,50,2.30
2010,03,07,03,51,2.30
2010,03,07,03,52,2.30
2010,03,07,03,53,2.30
2010,03,07,03,54,2.30
2010,03,07,03,55,2.30
2010,03,07,03,56,2.30
2010,03,07,03,57,2.30
2010,03,07,03,58,2.30
2010,03,07,03,59,2.30
2010,03,07,04,00,2.30
2010,03,07,04,01,2.30
2010,03,07,04,02,2.30
2010,03,07,04,03,2.30
2010,03,07,04,04,2.30
2010,03,07,04,05,2.30
2010,03,07,04,06,2.30
2010,03,07,04,07,2.30
2010,03,07,04,08,2.30
2010,03,07,04,09,2.30
2010,03,07,04,10,2.30
2010,03,07,04,11,2.30
2010,03,07,04,12,2.30
2010,03,07,04,13,2.30
2010,03,07,04,14,2.30
2010,03,07,04,15,2.30
2010,03,07,04,16,2.30
2010,03,07,04,17,2.30
2010,03,07,04,18,2.30
2010,03,07,04,19,2.30
2010,03,07,04,20,2.30
2010,03,07,04,21,2.30
2010,03,07,04,22,2.30
2010,03,07,04,23,2.30
2010,03,07,04,24,2.30
2010,03,07,04,25,2.30
2010,03,07,04,26,2.30
2010,03,07,04,27,2.30
2010,03,07,04,28,2.30
2010,03,07,04,29,2.30
2010,03,07,04,30,2.30
2010,03,07,04,31,2.30
2010,03,07,04,32,2.30
2010,03,07,04,33,2.30
2010,03,07,04,34,2.30
2010,03,07,04,35,2.30
2010,03,07,04,36,2.30
2010,03,07,04,37,2.30
2010,03,07,04,38,2.30
2010,03,07,04,39,2.30
2010,03,07,04,40,2.30
2010,03,07,04,41,2.30
2010,03,07,04,42,2.30
2010,03,07,04,43,2.30
2010,03,07,04,44,2.30
2010,03,07,04,45,2.30
2010,03,07,04,46,2.40
2010,03,07,04,47,2.40
2010,03,07,04,48,2.40
2010,03,07,04,49,2.40
2010,03,07,04,50,2.40
2010,03,07,04,51,2.40
2010,03,07,04,52,2.40
2010,03,07,04,53,2.40
2010,03,07,04,54,2.40
2010,03,07,04,55,2.30
2010,03,07,04,56,2.30
2010,03,07,04,57,2.30
2010,03,07,04,58,2.30
2010,03,07,04,59,2.30
2010,03,07,05,00,2.40
2010,03,07,05,01,2.30
2010,03,07,05,02,2.40
2010,03,07,05,03,2.40
2010,03,07,05,04,2.40
2010,03,07,05,05,2.40
2010,03,07,05,06,2.40
2010,03,07,05,07,2.40
2010,03,07,05,08,2.40
2010,03,07,05,09,2.40
2010,03,07,05,10,2.40
2010,03,07,05,11,2.40
2010,03,07,05,12,2.50
2010,03,07,05,13,2.50
2010,03,07,05,14,2.50
2010,03,07,05,15,2.60
2010,03,07,05,16,2.60
2010,03,07,05,17,2.60
2010,03,07,05,18,2.60
2010,03,07,05,19,2.60
2010,03,07,05,20,2.60
2010,03,07,05,21,2.60
2010,03,07,05,22,2.60
2010,03,07,05,23,2.60
2010,03,07,05,24,2.60
2010,03,07,05,25,2.60
2010,03,07,05,26,2.60
2010,03,07,05,27,2.60
2010,03,07,05,28,2.70
2010,03,07,05,29,2.70
2010,03,07,05,30,2.70
2010,03,07,05,31,2.70
2010,03,07,05,32,2.70
2010,03,07,05,33,2.70
2010,03,07,05,34,2.70
2010,03,07,05,35,2.70
2010,03,07,05,36,2.70
2010,03,07,05,37,2.70
2010,03,07,05,38,2.70
2010,03,07,05,39,2.70
2010,03,07,05,40,2.70
2010,03,07,05,41,2.70
2010,03,07,05,42,2.70
2010,03,07,05,43,2.70
2010,03,07,05,44,2.70
2010,03,07,05,45,2.70
2010,03,07,05,46,2.70
2010,03,07,05,47,2.70
2010,03,07,05,48,2.70
2010,03,07,05,49,2.70
2010,03,07,05,50,2.70
2010,03,07,05,51,2.70
2010,03,07,05,52,2.70
2010,03,07,05,53,2.70
2010,03,07,05,54,2.70
2010,03,07,05,55,2.70
2010,03,07,05,56,2.70
2010,03,07,05,57,2.70
2010,03,07,05,58,2.70
2010,03,07,05,59,2.70
2010,03,07,06,00,2.70
2010,03,07,06,01,2.70
2010,03,07,06,02,2.70
2010,03,07,06,03,2.70
2010,03,07,06,04,2.70
2010,03,07,06,05,2.70
2010,03,07,06,06,2.70
2010,03,07,06,07,2.70
2010,03,07,06,08,2.70
2010,03,07,06,09,2.70
2010,03,07,06,10,2.70
2010,03,07,06,11,2.70
2010,03,07,06,12,2.70
2010,03,07,06,13,2.80
2010,03,07,06,14,2.80
2010,03,07,06,15,2.80
2010,03,07,06,16,2.80
2010,03,07,06,17,2.80
2010,03,07,06,18,2.80
2010,03,07,06,19,2.80
2010,03,07,06,20,2.80
2010,03,07,06,21,2.80
2010,03,07,06,22,2.80
2010,03,07,06,23,2.80
2010,03,07,06,24,2.80
2010,03,07,06,25,2.80
2010,03,07,06,26,2.80
2010,03,07,06,27,2.80
2010,03,07,06,28,2.80
2010,03,07,06,29,2.80
2010,03,07,06,30,2.80
2010,03,07,06,31,2.80
2010,03,07,06,32,2.80
2010,03,07,06,33,2.80
2010,03,07,06,34,2.80
2010,03,07,06,35,2.80
2010,03,07,06,36,2.80
2010,03,07,06,37,2.80
2010,03,07,06,38,2.80
2010,03,07,06,39,2.80
2010,03,07,06,40,2.80
2010,03,07,06,41,2.80
2010,03,07,06,42,2.90
2010,03,07,06,43,2.80
2010,03,07,06,44,2.80
2010,03,07,06,45,2.90
2010,03,07,06,46,2.90
2010,03,07,06,47,2.90
2010,03,07,06,48,2.90
2010,03,07,06,49,2.90
2010,03,07,06,50,2.90
2010,03,07,06,51,2.90
2010,03,07,06,52,2.90
2010,03,07,06,53,2.90
2010,03,07,06,54,2.90
2010,03,07,06,55,2.90
2010,03,07,06,56,2.90
2010,03,07,06,57,2.90
2010,03,07,06,58,3.00
2010,03,07,06,59,3.00
2010,03,07,07,00,3.00
2010,03,07,07,01,3.00
2010,03,07,07,02,3.00
2010,03,07,07,03,3.00
2010,03,07,07,04,3.00
2010,03,07,07,05,3.00
2010,03,07,07,06,3.10
2010,03,07,07,07,3.10
2010,03,07,07,08,3.10
2010,03,07,07,09,3.10
2010,03,07,07,10,3.10
2010,03,07,07,11,3.10
2010,03,07,07,12,3.10
2010,03,07,07,13,3.10
2010,03,07,07,14,3.10
2010,03,07,07,15,3.10
2010,03,07,07,16,3.10
2010,03,07,07,17,3.10
2010,03,07,07,18,3.10
2010,03,07,07,19,3.20
2010,03,07,07,20,3.20
2010,03,07,07,21,3.20
2010,03,07,07,22,3.20
2010,03,07,07,23,3.20
2010,03,07,07,24,3.20
2010,03,07,07,25,3.20
2010,03,07,07,26,3.20
2010,03,07,07,27,3.20
2010,03,07,07,28,3.20
2010,03,07,07,29,3.20
2010,03,07,07,30,3.20
2010,03,07,07,31,3.20
2010,03,07,07,32,3.20
2010,03,07,07,33,3.20
2010,03,07,07,34,3.20
2010,03,07,07,35,3.20
2010,03,07,07,36,3.20
2010,03,07,07,37,3.20
2010,03,07,07,38,3.20
2010,03,07,07,39,3.20
2010,03,07,07,40,3.30
2010,03,07,07,41,3.30
2010,03,07,07,42,3.30
2010,03,07,07,43,3.30
2010,03,07,07,44,3.30
2010,03,07,07,45,3.30
2010,03,07,07,46,3.30
2010,03,07,07,47,3.30
2010,03,07,07,48,3.30
2010,03,07,07,49,3.30
2010,03,07,07,50,3.30
2010,03,07,07,51,3.30
2010,03,07,07,52,3.30
2010,03,07,07,53,3.30
2010,03,07,07,54,3.30
2010,03,07,07,55,3.30
2010,03,07,07,56,3.30
2010,03,07,07,57,3.30
2010,03,07,07,58,3.30
2010,03,07,07,59,3.40
2010,03,07,08,00,3.40
2010,03,07,08,01,3.40
2010,03,07,08,02,3.40
2010,03,07,08,03,3.40
2010,03,07,08,04,3.40
2010,03,07,08,05,3.40
2010,03,07,08,06,3.40
2010,03,07,08,07,3.40
2010,03,07,08,08,3.40
2010,03,07,08,09,3.40
2010,03,07,08,10,3.40
2010,03,07,08,11,3.40
2010,03,07,08,12,3.40
2010,03,07,08,13,3.40
2010,03,07,08,14,3.40
2010,03,07,08,15,3.40
2010,03,07,08,16,3.50
2010,03,07,08,17,3.50
2010,03,07,08,18,3.50
2010,03,07,08,19,3.50
2010,03,07,08,20,3.60
2010,03,07,08,21,3.60
2010,03,07,08,22,3.60
2010,03,07,08,23,3.60
2010,03,07,08,24,3.60
2010,03,07,08,25,3.60
2010,03,07,08,26,3.60
2010,03,07,08,27,3.60
2010,03,07,08,28,3.70
2010,03,07,08,29,3.70
2010,03,07,08,30,3.70
2010,03,07,08,31,3.70
2010,03,07,08,32,3.70
2010,03,07,08,33,3.70
2010,03,07,08,34,3.70
2010,03,07,08,35,3.80
2010,03,07,08,36,3.80
2010,03,07,08,37,3.80
2010,03,07,08,38,3.80
2010,03,07,08,39,3.80
2010,03,07,08,40,3.80
2010,03,07,08,41,3.80
2010,03,07,08,42,3.80
2010,03,07,08,43,3.80
2010,03,07,08,44,3.80
2010,03,07,08,45,3.80
2010,03,07,08,46,3.80
2010,03,07,08,47,3.90
2010,03,07,08,48,3.90
2010,03,07,08,49,3.90
2010,03,07,08,50,3.90
2010,03,07,08,51,3.90
2010,03,07,08,52,3.90
2010,03,07,08,53,3.90
2010,03,07,08,54,4.00
2010,03,07,08,55,4.00
2010,03,07,08,56,4.10
2010,03,07,08,57,4.10
2010,03,07,08,58,4.10
2010,03,07,08,59,4.10
2010,03,07,09,00,4.20
2010,03,07,09,01,4.20
2010,03,07,09,02,4.20
2010,03,07,09,03,4.20
2010,03,07,09,04,4.20
2010,03,07,09,05,4.30
2010,03,07,09,06,4.30
2010,03,07,09,07,4.30
2010,03,07,09,08,4.20
2010,03,07,09,09,4.20
2010,03,07,09,10,4.30
2010,03,07,09,11,4.30
2010,03,07,09,12,4.30
2010,03,07,09,13,4.20
2010,03,07,09,14,4.30
2010,03,07,09,15,4.30
2010,03,07,09,16,4.30
2010,03,07,09,17,4.30
2010,03,07,09,18,4.30
2010,03,07,09,19,4.30
2010,03,07,09,20,4.30
2010,03,07,09,21,4.30
2010,03,07,09,22,4.30
2010,03,07,09,23,4.30
2010,03,07,09,24,4.30
2010,03,07,09,25,4.40
2010,03,07,09,26,4.40
2010,03,07,09,27,4.40
2010,03,07,09,28,4.40
2010,03,07,09,29,4.50
2010,03,07,09,30,4.50
2010,03,07,09,31,4.50
2010,03,07,09,32,4.50
2010,03,07,09,33,4.60
2010,03,07,09,34,4.60
2010,03,07,09,35,4.60
2010,03,07,09,36,4.60
2010,03,07,09,37,4.60
2010,03,07,09,38,4.60
2010,03,07,09,39,4.60
2010,03,07,09,40,4.70
2010,03,07,09,41,4.70
2010,03,07,09,42,4.70
2010,03,07,09,43,4.70
2010,03,07,09,44,4.70
2010,03,07,09,45,4.70
2010,03,07,09,46,4.80
2010,03,07,09,47,4.80
2010,03,07,09,48,4.80
2010,03,07,09,49,4.80
2010,03,07,09,50,4.80
2010,03,07,09,51,4.90
2010,03,07,09,52,4.90
2010,03,07,09,53,4.90
2010,03,07,09,54,4.90
2010,03,07,09,55,4.90
2010,03,07,09,56,4.90
2010,03,07,09,57,4.90
2010,03,07,09,58,4.90
2010,03,07,09,59,5.00
2010,03,07,10,00,5.00
2010,03,07,10,01,5.00
2010,03,07,10,02,5.00
2010,03,07,10,03,5.00
2010,03,07,10,04,5.00
2010,03,07,10,05,5.00
2010,03,07,10,06,5.00
2010,03,07,10,07,5.00
2010,03,07,10,08,5.00
2010,03,07,10,09,5.00
2010,03,07,10,10,5.00
2010,03,07,10,11,5.00
2010,03,07,10,12,5.00
2010,03,07,10,13,5.00
2010,03,07,10,14,5.10
2010,03,07,10,15,5.10
2010,03,07,10,16,5.10
2010,03,07,10,17,5.10
2010,03,07,10,18,5.10
2010,03,07,10,19,5.10
2010,03,07,10,20,5.10
2010,03,07,10,21,5.20
2010,03,07,10,22,5.20
2010,03,07,10,23,5.20
2010,03,07,10,24,5.30
2010,03,07,10,25,5.30
2010,03,07,10,26,5.30
2010,03,07,10,27,5.30
2010,03,07,10,28,5.40
2010,03,07,10,29,5.40
2010,03,07,10,30,5.40
2010,03,07,10,31,5.40
2010,03,07,10,32,5.40
2010,03,07,10,33,5.50
2010,03,07,10,34,5.50
2010,03,07,10,35,5.50
2010,03,07,10,36,5.60
2010,03,07,10,37,5.60
2010,03,07,10,38,5.60
2010,03,07,10,39,5.60
2010,03,07,10,40,5.70
2010,03,07,10,41,5.70
2010,03,07,10,42,5.70
2010,03,07,10,43,5.70
2010,03,07,10,44,5.70
2010,03,07,10,45,5.70
2010,03,07,10,46,5.80
2010,03,07,10,47,5.80
2010,03,07,10,48,5.80
2010,03,07,10,49,5.80
2010,03,07,10,50,5.80
2010,03,07,10,51,5.80
2010,03,07,10,52,5.80
2010,03,07,10,53,5.80
2010,03,07,10,54,5.80
2010,03,07,10,55,5.80
2010,03,07,10,56,5.80
2010,03,07,10,57,5.90
2010,03,07,10,58,5.90
2010,03,07,10,59,5.90
2010,03,07,11,00,5.90
2010,03,07,11,01,5.90
2010,03,07,11,02,5.90
2010,03,07,11,03,6.00
2010,03,07,11,04,6.00
2010,03,07,11,05,6.00
2010,03,07,11,06,6.00
2010,03,07,11,07,6.00
2010,03,07,11,08,6.10
2010,03,07,11,09,6.10
2010,03,07,11,10,6.10
2010,03,07,11,11,6.10
2010,03,07,11,12,6.10
2010,03,07,11,13,6.10
2010,03,07,11,14,6.10
2010,03,07,11,15,6.10
2010,03,07,11,16,6.10
2010,03,07,11,17,6.20
2010,03,07,11,18,6.20
2010,03,07,11,19,6.20
2010,03,07,11,20,6.20
2010,03,07,11,21,6.20
2010,03,07,11,22,6.20
2010,03,07,11,23,6.20
2010,03,07,11,24,6.20
2010,03,07,11,25,6.30
2010,03,07,11,26,6.30
2010,03,07,11,27,6.30
2010,03,07,11,28,6.30
2010,03,07,11,29,6.30
2010,03,07,11,30,6.30
2010,03,07,11,31,6.40
2010,03,07,11,32,6.40
2010,03,07,11,33,6.40
2010,03,07,11,34,6.40
2010,03,07,11,35,6.40
2010,03,07,11,36,6.40
2010,03,07,11,37,6.50
2010,03,07,11,38,6.50
2010,03,07,11,39,6.50
2010,03,07,11,40,6.50
2010,03,07,11,41,6.60
2010,03,07,11,42,6.60
2010,03,07,11,43,6.60
2010,03,07,11,44,6.60
2010,03,07,11,45,6.60
2010,03,07,11,46,6.60
2010,03,07,11,47,6.60
2010,03,07,11,48,6.60
2010,03,07,11,49,6.70
2010,03,07,11,50,6.70
2010,03,07,11,51,6.70
2010,03,07,11,52,6.70
2010,03,07,11,53,6.70
2010,03,07,11,54,6.70
2010,03,07,11,55,6.70
2010,03,07,11,56,6.80
2010,03,07,11,57,6.80
2010,03,07,11,58,6.80
2010,03,07,11,59,6.90
2010,03,07,12,00,6.90
2010,03,07,12,01,6.90
2010,03,07,12,02,7.00
2010,03,07,12,03,7.00
2010,03,07,12,04,7.10
2010,03,07,12,05,7.10
2010,03,07,12,06,7.10
2010,03,07,12,07,7.10
2010,03,07,12,08,7.20
2010,03,07,12,09,7.20
2010,03,07,12,10,7.20
2010,03,07,12,11,7.20
2010,03,07,12,12,7.20
2010,03,07,12,13,7.20
2010,03,07,12,14,7.20
2010,03,07,12,15,7.30
2010,03,07,12,16,7.30
2010,03,07,12,17,7.30
2010,03,07,12,18,7.30
2010,03,07,12,19,7.30
2010,03,07,12,20,7.30
2010,03,07,12,21,7.30
2010,03,07,12,22,7.40
2010,03,07,12,23,7.40
2010,03,07,12,24,7.40
2010,03,07,12,25,7.40
2010,03,07,12,26,7.40
2010,03,07,12,27,7.50
2010,03,07,12,28,7.50
2010,03,07,12,29,7.50
2010,03,07,12,30,7.50
2010,03,07,12,31,7.50
2010,03,07,12,32,7.50
2010,03,07,12,33,7.50
2010,03,07,12,34,7.60
2010,03,07,12,35,7.60
2010,03,07,12,36,7.60
2010,03,07,12,37,7.60
2010,03,07,12,38,7.60
2010,03,07,12,39,7.60
2010,03,07,12,40,7.60
2010,03,07,12,41,7.60
2010,03,07,12,42,7.70
2010,03,07,12,43,7.70
2010,03,07,12,44,7.70
2010,03,07,12,45,7.70
2010,03,07,12,46,7.80
2010,03,07,12,47,7.80
2010,03,07,12,48,7.80
2010,03,07,12,49,7.80
2010,03,07,12,50,7.80
2010,03,07,12,51,7.80
2010,03,07,12,52,7.80
2010,03,07,12,53,7.80
2010,03,07,12,54,7.80
2010,03,07,12,55,7.80
2010,03,07,12,56,7.90
2010,03,07,12,57,7.90
2010,03,07,12,58,7.90
2010,03,07,12,59,7.90
2010,03,07,13,00,7.90
2010,03,07,13,01,8.00
2010,03,07,13,02,8.00
2010,03,07,13,03,8.10
2010,03,07,13,04,8.10
2010,03,07,13,05,8.10
2010,03,07,13,06,8.20
2010,03,07,13,07,8.20
2010,03,07,13,08,8.10
2010,03,07,13,09,8.10
2010,03,07,13,10,8.10
2010,03,07,13,11,8.10
2010,03,07,13,12,8.10
2010,03,07,13,13,8.10
2010,03,07,13,14,8.10
2010,03,07,13,15,8.10
2010,03,07,13,16,8.20
2010,03,07,13,17,8.20
2010,03,07,13,18,8.30
2010,03,07,13,19,8.40
2010,03,07,13,20,8.50
2010,03,07,13,21,8.60
2010,03,07,13,22,8.70
2010,03,07,13,23,8.80
2010,03,07,13,24,8.80
2010,03,07,13,25,8.90
2010,03,07,13,26,9.00
2010,03,07,13,27,9.00
2010,03,07,13,28,9.10
2010,03,07,13,29,9.10
2010,03,07,13,30,9.20
2010,03,07,13,31,9.20
2010,03,07,13,32,9.30
2010,03,07,13,33,9.30
2010,03,07,13,34,9.30
2010,03,07,13,35,9.30
2010,03,07,13,36,9.40
2010,03,07,13,37,9.40
2010,03,07,13,38,9.30
2010,03,07,13,39,9.30
2010,03,07,13,40,9.30
2010,03,07,13,41,9.30
2010,03,07,13,42,9.30
2010,03,07,13,43,9.30
2010,03,07,13,44,9.30
2010,03,07,13,45,9.40
2010,03,07,13,46,9.40
2010,03,07,13,47,9.40
2010,03,07,13,48,9.40
2010,03,07,13,49,9.40
2010,03,07,13,50,9.40
2010,03,07,13,51,9.40
2010,03,07,13,52,9.40
2010,03,07,13,53,9.40
2010,03,07,13,54,9.40
2010,03,07,13,55,9.40
2010,03,07,13,56,9.40
2010,03,07,13,57,9.40
2010,03,07,13,58,9.30
2010,03,07,13,59,9.30
2010,03,07,14,00,9.30
2010,03,07,14,01,9.30
2010,03,07,14,02,9.30
2010,03,07,14,03,9.30
2010,03,07,14,04,9.30
2010,03,07,14,05,9.30
2010,03,07,14,06,9.30
2010,03,07,14,07,9.30
2010,03,07,14,08,9.30
2010,03,07,14,09,9.30
2010,03,07,14,10,9.30
2010,03,07,14,11,9.30
2010,03,07,14,12,9.30
2010,03,07,14,13,9.30
2010,03,07,14,14,9.30
2010,03,07,14,15,9.20
2010,03,07,14,16,9.20
2010,03,07,14,17,9.20
2010,03,07,14,18,9.10
2010,03,07,14,19,9.10
2010,03,07,14,20,9.10
2010,03,07,14,21,9.00
2010,03,07,14,22,9.00
2010,03,07,14,23,8.90
2010,03,07,14,24,8.90
2010,03,07,14,25,8.90
2010,03,07,14,26,8.90
2010,03,07,14,27,8.90
2010,03,07,14,28,8.90
2010,03,07,14,29,8.90
2010,03,07,14,30,8.80
2010,03,07,14,31,8.80
2010,03,07,14,32,8.80
2010,03,07,14,33,8.80
2010,03,07,14,34,8.80
2010,03,07,14,35,8.70
2010,03,07,14,36,8.70
2010,03,07,14,37,8.70
2010,03,07,14,38,8.70
2010,03,07,14,39,8.70
2010,03,07,14,40,8.70
2010,03,07,14,41,8.70
2010,03,07,14,42,8.70
2010,03,07,14,43,8.70
2010,03,07,14,44,8.70
2010,03,07,14,45,8.70
2010,03,07,14,46,8.70
2010,03,07,14,47,8.70
2010,03,07,14,48,8.70
2010,03,07,14,49,8.70
2010,03,07,14,50,8.70
2010,03,07,14,51,8.70
2010,03,07,14,52,8.70
2010,03,07,14,53,8.70
2010,03,07,14,54,8.70
2010,03,07,14,55,8.70
2010,03,07,14,56,8.80
2010,03,07,14,57,8.80
2010,03,07,14,58,8.80
2010,03,07,14,59,8.80
2010,03,07,15,00,8.80
2010,03,07,15,01,8.80
2010,03,07,15,02,8.80
2010,03,07,15,03,8.90
2010,03,07,15,04,8.90
2010,03,07,15,05,8.90
2010,03,07,15,06,8.90
2010,03,07,15,07,8.90
2010,03,07,15,08,8.90
2010,03,07,15,09,8.90
2010,03,07,15,10,8.90
2010,03,07,15,11,8.90
2010,03,07,15,12,8.90
2010,03,07,15,13,8.90
2010,03,07,15,14,8.90
2010,03,07,15,15,9.00
2010,03,07,15,16,9.00
2010,03,07,15,17,9.00
2010,03,07,15,18,9.00
2010,03,07,15,19,9.00
2010,03,07,15,20,9.00
2010,03,07,15,21,9.00
2010,03,07,15,22,9.00
2010,03,07,15,23,9.00
2010,03,07,15,24,9.00
2010,03,07,15,25,9.00
2010,03,07,15,26,9.00
2010,03,07,15,27,8.90
2010,03,07,15,28,8.90
2010,03,07,15,29,8.90
2010,03,07,15,30,8.90
2010,03,07,15,31,8.90
2010,03,07,15,32,8.80
2010,03,07,15,33,8.80
2010,03,07,15,34,8.80
2010,03,07,15,35,8.80
2010,03,07,15,36,8.80
2010,03,07,15,37,8.80
2010,03,07,15,38,8.80
2010,03,07,15,39,8.80
2010,03,07,15,40,8.80
2010,03,07,15,41,8.80
2010,03,07,15,42,8.80
2010,03,07,15,43,8.70
2010,03,07,15,44,8.70
2010,03,07,15,45,8.70
2010,03,07,15,46,8.60
2010,03,07,15,47,8.60
2010,03,07,15,48,8.50
2010,03,07,15,49,8.50
2010,03,07,15,50,8.40
2010,03,07,15,51,8.40
2010,03,07,15,52,8.40
2010,03,07,15,53,8.30
2010,03,07,15,54,8.30
2010,03,07,15,55,8.30
2010,03,07,15,56,8.30
2010,03,07,15,57,8.30
2010,03,07,15,58,8.20
2010,03,07,15,59,8.20
2010,03,07,16,00,8.20
2010,03,07,16,01,8.20
2010,03,07,16,02,8.20
2010,03,07,16,03,8.20
2010,03,07,16,04,8.20
2010,03,07,16,05,8.20
2010,03,07,16,06,8.10
2010,03,07,16,07,8.10
2010,03,07,16,08,8.10
2010,03,07,16,09,8.10
2010,03,07,16,10,8.10
2010,03,07,16,11,8.10
2010,03,07,16,12,8.10
2010,03,07,16,13,8.00
2010,03,07,16,14,8.00
2010,03,07,16,15,8.00
2010,03,07,16,16,8.00
2010,03,07,16,17,8.00
2010,03,07,16,18,7.90
2010,03,07,16,19,7.90
2010,03,07,16,20,7.90
2010,03,07,16,21,7.90
2010,03,07,16,22,7.90
2010,03,07,16,23,7.90
2010,03,07,16,24,7.90
2010,03,07,16,25,7.90
2010,03,07,16,26,7.80
2010,03,07,16,27,7.80
2010,03,07,16,28,7.80
2010,03,07,16,29,7.80
2010,03,07,16,30,7.80
2010,03,07,16,31,7.80
2010,03,07,16,32,7.80
2010,03,07,16,33,7.80
2010,03,07,16,34,7.80
2010,03,07,16,35,7.70
2010,03,07,16,36,7.70
2010,03,07,16,37,7.70
2010,03,07,16,38,7.70
2010,03,07,16,39,7.70
2010,03,07,16,40,7.70
2010,03,07,16,41,7.70
2010,03,07,16,42,7.70
2010,03,07,16,43,7.70
2010,03,07,16,44,7.70
2010,03,07,16,45,7.70
2010,03,07,16,46,7.70
2010,03,07,16,47,7.70
2010,03,07,16,48,7.70
2010,03,07,16,49,7.70
2010,03,07,16,50,7.70
2010,03,07,16,51,7.70
2010,03,07,16,52,7.70
2010,03,07,16,53,7.70
2010,03,07,16,54,7.70
2010,03,07,16,55,7.70
2010,03,07,16,56,7.70
2010,03,07,16,57,7.70
2010,03,07,16,58,7.70
2010,03,07,16,59,7.70
2010,03,07,17,00,7.70
2010,03,07,17,01,7.70
2010,03,07,17,02,7.70
2010,03,07,17,03,7.70
2010,03,07,17,04,7.70
2010,03,07,17,05,7.70
2010,03,07,17,06,7.60
2010,03,07,17,07,7.60
2010,03,07,17,08,7.60
2010,03,07,17,09,7.70
2010,03,07,17,10,7.60
2010,03,07,17,11,7.60
2010,03,07,17,12,7.60
2010,03,07,17,13,7.60
2010,03,07,17,14,7.60
2010,03,07,17,15,7.60
2010,03,07,17,16,7.60
2010,03,07,17,17,7.60
2010,03,07,17,18,7.60
2010,03,07,17,19,7.70
2010,03,07,17,20,7.70
2010,03,07,17,21,7.70
2010,03,07,17,22,7.70
2010,03,07,17,23,7.70
2010,03,07,17,24,7.70
2010,03,07,17,25,7.70
2010,03,07,17,26,7.70
2010,03,07,17,27,7.70
2010,03,07,17,28,7.70
2010,03,07,17,29,7.70
2010,03,07,17,30,7.70
2010,03,07,17,31,7.70
2010,03,07,17,32,7.70
2010,03,07,17,33,7.70
2010,03,07,17,34,7.70
2010,03,07,17,35,7.70
2010,03,07,17,36,7.70
2010,03,07,17,37,7.70
2010,03,07,17,38,7.70
2010,03,07,17,39,7.70
2010,03,07,17,40,7.80
2010,03,07,17,41,7.80
2010,03,07,17,42,7.70
2010,03,07,17,43,7.70
2010,03,07,17,44,7.70
2010,03,07,17,45,7.70
2010,03,07,17,46,7.70
2010,03,07,17,47,7.60
2010,03,07,17,48,7.60
2010,03,07,17,49,7.60
2010,03,07,17,50,7.60
2010,03,07,17,51,7.50
2010,03,07,17,52,7.40
2010,03,07,17,53,7.40
2010,03,07,17,54,7.30
2010,03,07,17,55,7.20
2010,03,07,17,56,7.10
2010,03,07,17,57,6.90
2010,03,07,17,58,6.80
2010,03,07,17,59,6.60
2010,03,07,18,00,6.50
2010,03,07,18,01,6.30
2010,03,07,18,02,6.20
2010,03,07,18,03,6.10
2010,03,07,18,04,5.90
2010,03,07,18,05,5.80
2010,03,07,18,06,5.80